Weather reports worldwide

Advertisment
Madridejos, Spain (8273): temperature & dewpoint: 14.08.2019 06:00:00 - 20.08.2019 06:00:00 (CEST)Madridejos, Spain (8273): wind speed & gusts: 14.08.2019 06:00:00 - 20.08.2019 06:00:00 (CEST)Madridejos, Spain (8273): wind direction: 14.08.2019 06:00:00 - 20.08.2019 06:00:00 (CEST)Madridejos, Spain (8273): reduced air pressure: 14.08.2019 06:00:00 - 20.08.2019 06:00:00 (CEST)Madridejos, Spain (8273): visibility: 14.08.2019 06:00:00 - 20.08.2019 06:00:00 (CEST)Madridejos, Spain (8273): sunshine duration: 14.08.2019 06:00:00 - 20.08.2019 06:00:00 (CEST)Madridejos, Spain (8273): precipitation: 14.08.2019 06:00:00 - 20.08.2019 06:00:00 (CEST)
Date & Time tt [°C] td [°C] ff [km/h] ff [kn] fx [km/h] fx [kn] dd ppp [hPa] vv [km] sd [min] rr [mm]
20.08.2019 06:00:00 - - - - - - - - - - -
20.08.2019 05:00:00 21,0 5,3 5 3 9 5 E 1012,4 20 0 0,0
20.08.2019 04:00:00 21,7 3,4 2 1 23 12 NNW 1012,5 20 0 0,0
20.08.2019 03:00:00 20,8 3,9 4 2 7 4 WNW 1013,0 20 0 0,0
20.08.2019 02:00:00 22,3 3,4 2 1 22 12 NNW 1012,9 20 0 -
20.08.2019 01:00:00 23,4 4,3 11 6 17 9 WNW 1012,1 20 0 0,0
20.08.2019 00:00:00 24,9 6,1 3 2 18 10 NW 1011,5 20 0 0,0
19.08.2019 23:00:00 26,9 6,2 12 7 25 14 NW 1010,6 20 0 0,0
19.08.2019 22:00:00 28,4 6,4 16 9 35 19 WNW 1009,7 20 0 0,0
19.08.2019 21:00:00 31,2 7,0 16 9 27 15 W 1008,4 20 47 0,0
19.08.2019 20:00:00 32,4 6,5 12 6 33 18 WSW 1007,8 20 47 -
19.08.2019 19:00:00 34,0 7,1 18 10 34 19 WSW 1007,6 20 60 0,0
19.08.2019 18:00:00 34,1 7,1 18 10 37 20 SW 1007,9 20 60 0,0
19.08.2019 17:00:00 34,2 6,5 17 9 35 19 WSW 1008,5 20 60 0,0
19.08.2019 16:00:00 33,9 4,5 19 11 38 21 WSW 1009,0 20 60 0,0
19.08.2019 15:00:00 33,2 3,9 14 8 33 18 WSW 1009,6 20 60 0,0
19.08.2019 14:00:00 32,0 3,0 15 8 35 19 SSW 1010,0 20 60 -
19.08.2019 13:00:00 30,9 5,3 19 10 36 19 SW 1010,5 20 60 0,0
19.08.2019 12:00:00 29,5 8,0 10 5 18 10 SE 1011,1 20 60 0,0
19.08.2019 11:00:00 27,8 8,7 3 2 26 14 S 1011,4 20 60 0,0
19.08.2019 10:00:00 24,4 9,6 6 3 19 11 SSW 1012,3 20 60 0,0
19.08.2019 09:00:00 20,0 6,7 7 4 21 11 SW 1013,4 9 59 0,0
19.08.2019 08:00:00 17,6 5,5 8 5 21 11 S 1014,1 20 0 -
19.08.2019 07:00:00 17,9 4,5 3 2 18 10 SSE 1013,5 20 0 0,0
19.08.2019 06:00:00 18,5 5,0 3 1 17 9 WNW 1013,5 20 0 0,0
19.08.2019 05:00:00 19,6 4,5 4 2 20 11 SW 1013,2 20 0 0,0
19.08.2019 04:00:00 20,3 4,8 8 4 26 14 W 1013,2 20 0 0,0
19.08.2019 03:00:00 23,5 5,8 8 4 25 14 SSW 1012,5 20 0 0,0
19.08.2019 02:00:00 23,6 3,0 4 2 13 7 SSW 1012,5 20 0 -
19.08.2019 01:00:00 24,0 2,1 2 1 34 19 SW 1012,1 20 0 0,0
19.08.2019 00:00:00 25,0 0,4 17 9 36 19 W 1011,2 20 0 0,0
18.08.2019 23:00:00 25,5 0,2 14 8 22 12 WNW 1010,8 20 0 0,0
18.08.2019 22:00:00 28,4 -6,0 16 8 36 19 W 1009,0 20 13 0,0
18.08.2019 21:00:00 31,8 -6,4 22 12 47 25 W 1007,9 20 22 0,0
18.08.2019 20:00:00 34,2 -3,3 23 12 42 23 W 1007,4 20 60 -
18.08.2019 19:00:00 35,0 1,3 23 12 47 25 WSW 1007,2 20 60 0,0
18.08.2019 18:00:00 35,9 0,9 23 12 50 27 WSW 1006,8 20 60 0,0
18.08.2019 17:00:00 36,0 2,1 24 13 55 30 WSW 1007,0 20 60 0,0
18.08.2019 16:00:00 35,5 2,9 20 11 44 24 WSW 1007,5 20 60 0,0
18.08.2019 15:00:00 35,4 3,8 23 12 51 28 WSW 1008,0 20 60 0,0
18.08.2019 14:00:00 34,7 4,3 24 13 39 21 WSW 1008,6 20 60 -
18.08.2019 13:00:00 33,7 4,5 20 11 40 21 SW 1009,3 20 60 0,0
18.08.2019 12:00:00 31,8 2,9 10 6 22 12 SW 1010,0 20 60 0,0
18.08.2019 11:00:00 29,8 2,1 10 5 18 10 SW 1010,3 20 60 0,0
18.08.2019 10:00:00 26,2 1,5 2 1 19 11 ESE 1011,0 20 60 0,0
18.08.2019 09:00:00 - - - - - - - - - - -
18.08.2019 08:00:00 - - - - - - - - - - -
18.08.2019 07:00:00 - - - - - - - - - - -
18.08.2019 06:00:00 - - - - - - - - - - -
18.08.2019 05:00:00 - - - - - - - - - - -
18.08.2019 04:00:00 - - - - - - - - - - -
18.08.2019 03:00:00 - - - - - - - - - - -
18.08.2019 02:00:00 25,6 2,9 9 5 18 10 WSW 1010,7 20 0 -
18.08.2019 01:00:00 26,4 2,3 9 5 16 9 W 1010,2 20 0 0,0
18.08.2019 00:00:00 27,0 2,1 10 6 15 8 W 1009,9 20 0 0,0
17.08.2019 23:00:00 28,6 1,9 9 5 16 9 WSW 1009,5 20 0 0,0
17.08.2019 22:00:00 31,1 2,3 9 5 22 12 WNW 1008,2 20 13 0,0
17.08.2019 21:00:00 35,4 2,9 6 4 24 13 WSW 1006,8 20 60 0,0
17.08.2019 20:00:00 36,8 1,5 13 7 32 18 W 1006,5 20 60 -
17.08.2019 19:00:00 37,5 2,1 14 7 34 18 SW 1006,9 20 60 0,0
17.08.2019 18:00:00 37,7 3,4 12 6 39 21 SW 1007,2 20 60 0,0
17.08.2019 17:00:00 37,2 4,1 10 5 41 22 WSW 1007,9 20 60 0,0
17.08.2019 16:00:00 36,8 3,9 13 7 34 19 WSW 1008,6 20 60 0,0
17.08.2019 15:00:00 36,4 3,6 16 8 38 21 WSW 1009,5 20 60 0,0
17.08.2019 14:00:00 35,9 5,1 16 8 38 21 SW 1010,0 20 60 -
17.08.2019 13:00:00 34,7 5,1 11 6 24 13 SSE 1011,0 4,7 60 0,0
17.08.2019 12:00:00 32,9 4,6 10 5 18 10 SE 1011,9 20 60 0,0
17.08.2019 11:00:00 30,2 4,8 8 4 16 9 SSE 1012,6 20 60 0,0
17.08.2019 10:00:00 26,5 5,5 4 2 8 5 SSW 1013,7 20 60 0,0
17.08.2019 09:00:00 23,1 5,5 2 1 9 5 S 1014,4 20 60 0,0
17.08.2019 08:00:00 20,3 4,8 5 3 25 13 SE 1014,8 19 0 -
17.08.2019 07:00:00 20,9 4,8 4 2 11 6 SE 1014,3 20 0 0,0
17.08.2019 06:00:00 21,5 5,8 8 4 26 14 W 1013,8 20 0 0,0
17.08.2019 05:00:00 23,4 5,3 11 6 20 11 WSW 1013,3 20 0 0,0
17.08.2019 04:00:00 23,0 4,5 8 5 13 7 WSW 1013,6 20 0 0,0
17.08.2019 03:00:00 23,2 3,2 8 4 13 7 WSW 1013,6 20 0 0,0
17.08.2019 02:00:00 23,7 1,9 7 4 12 6 WSW 1013,6 20 0 -
17.08.2019 01:00:00 25,1 1,9 8 5 17 9 WSW 1013,4 20 0 0,0
17.08.2019 00:00:00 27,1 2,3 11 6 16 9 WSW 1012,6 20 0 0,0
16.08.2019 23:00:00 28,1 0,6 10 5 24 13 W 1012,3 20 0 0,0
16.08.2019 22:00:00 31,2 1,5 14 7 30 16 W 1010,7 20 17 0,0
16.08.2019 21:00:00 34,3 3,0 18 10 33 18 W 1009,5 20 60 0,0
16.08.2019 20:00:00 35,5 2,9 20 11 38 21 SW 1008,7 20 60 -
16.08.2019 19:00:00 36,5 3,6 18 10 38 20 SW 1008,6 20 60 0,0
16.08.2019 18:00:00 36,8 3,9 15 8 43 23 SW 1008,7 20 60 0,0
16.08.2019 17:00:00 36,7 3,8 18 10 39 21 W 1009,5 20 60 0,0
16.08.2019 16:00:00 36,2 5,5 7 4 32 18 S 1010,1 20 60 0,0
16.08.2019 15:00:00 35,1 6,4 6 3 19 11 WNW 1011,0 20 60 0,0
16.08.2019 14:00:00 33,4 7,4 4 2 16 9 N 1012,1 20 60 -
16.08.2019 13:00:00 31,1 9,3 6 3 13 7 SSE 1013,2 20 60 0,0
16.08.2019 12:00:00 28,2 10,4 4 2 13 7 ESE 1014,2 20 60 0,0
16.08.2019 11:00:00 24,5 12,1 5 3 22 12 ENE 1015,3 20 60 0,0
16.08.2019 10:00:00 22,8 12,7 6 3 23 12 SE 1015,7 20 60 0,0
16.08.2019 09:00:00 19,7 12,0 6 3 19 10 NE 1016,3 20 60 0,0
16.08.2019 08:00:00 17,4 8,5 2 1 20 11 NNE 1016,8 6 0 -
16.08.2019 07:00:00 19,9 12,4 2 1 8 5 ESE 1015,6 20 0 0,0
16.08.2019 06:00:00 20,2 12,2 4 2 24 13 SE 1015,3 20 0 0,0
16.08.2019 05:00:00 21,1 10,5 10 6 24 13 E 1015,1 20 0 0,0
16.08.2019 04:00:00 21,5 5,0 4 2 29 16 ENE 1015,2 20 0 0,0
16.08.2019 03:00:00 22,1 2,7 10 5 19 11 NNW 1015,0 20 0 0,0
16.08.2019 02:00:00 23,5 2,3 9 5 20 11 WNW 1014,7 20 0 -
16.08.2019 01:00:00 24,8 2,9 8 4 12 6 SSW 1014,1 20 0 0,0
16.08.2019 00:00:00 27,6 3,2 4 2 11 6 SE 1013,4 20 0 0,0
15.08.2019 23:00:00 29,7 2,9 8 4 14 8 NE 1012,8 20 0 0,0
15.08.2019 22:00:00 31,2 2,5 10 6 14 8 NE 1011,9 20 17 0,0
15.08.2019 21:00:00 33,2 2,1 7 4 18 10 NNE 1011,2 20 60 0,0
15.08.2019 20:00:00 34,5 2,1 9 5 27 15 NNW 1010,6 20 60 -
15.08.2019 19:00:00 35,0 2,5 6 3 22 12 N 1010,6 20 60 0,0
15.08.2019 18:00:00 35,8 1,9 8 5 22 12 WNW 1010,5 20 60 0,0
15.08.2019 17:00:00 34,9 1,3 8 4 22 12 N 1011,3 20 60 0,0
15.08.2019 16:00:00 34,4 2,1 7 4 24 13 ESE 1011,9 20 60 0,0
15.08.2019 15:00:00 33,9 1,7 8 4 19 10 N 1012,6 20 60 0,0
15.08.2019 14:00:00 33,1 2,1 8 4 17 9 SSW 1013,3 20 60 -
15.08.2019 13:00:00 31,2 3,2 7 4 13 7 NNE 1014,3 20 60 0,0
15.08.2019 12:00:00 28,6 5,5 4 2 12 7 NNW 1015,4 20 60 0,0
15.08.2019 11:00:00 26,0 7,1 3 1 9 5 NNW 1016,2 20 60 0,0
15.08.2019 10:00:00 23,4 7,4 6 3 22 12 SE 1016,7 20 60 0,0
15.08.2019 09:00:00 19,6 0,6 6 3 20 11 SSE 1017,6 20 60 0,0
15.08.2019 08:00:00 16,2 0,0 7 4 22 12 S 1018,2 4,5 3 -
15.08.2019 07:00:00 16,2 -0,5 5 3 19 10 SW 1017,9 20 0 0,0
15.08.2019 06:00:00 16,9 -1,2 7 4 19 11 NE 1017,4 20 0 0,0
15.08.2019 05:00:00 18,0 -0,7 7 4 19 10 SE 1016,8 20 0 0,0
15.08.2019 04:00:00 18,9 0,0 5 3 16 8 SW 1016,7 20 0 0,0
15.08.2019 03:00:00 19,7 -1,0 6 4 22 12 WSW 1016,7 20 0 0,0
15.08.2019 02:00:00 20,3 -0,5 9 5 28 15 W 1017,1 20 0 -
15.08.2019 01:00:00 22,7 0,0 4 2 8 5 SSW 1016,3 20 0 0,0
15.08.2019 00:00:00 24,1 1,1 3 2 13 7 NW 1015,9 20 0 0,0
14.08.2019 23:00:00 26,1 -1,0 5 3 16 9 ENE 1015,2 20 0 0,0
14.08.2019 22:00:00 28,7 -1,4 6 4 19 11 NNE 1014,0 20 20 0,0
14.08.2019 21:00:00 31,1 -0,5 10 5 22 12 NNE 1012,8 20 60 0,0
14.08.2019 20:00:00 32,8 -0,3 11 6 21 11 N 1012,2 20 60 -
14.08.2019 19:00:00 33,1 0,0 5 3 22 12 E 1012,4 20 60 0,0
14.08.2019 18:00:00 33,3 0,0 7 4 24 13 NNW 1012,4 20 60 0,0
14.08.2019 17:00:00 32,5 0,4 14 7 35 19 N 1013,1 20 60 0,0
14.08.2019 16:00:00 32,6 0,6 13 7 24 13 WNW 1013,5 20 60 0,0
14.08.2019 15:00:00 31,1 1,5 12 6 26 14 N 1014,7 20 60 0,0
14.08.2019 14:00:00 30,6 1,9 5 3 19 11 SSW 1015,4 20 60 -
14.08.2019 13:00:00 27,9 6,5 4 2 25 14 NNE 1016,5 20 60 0,0
14.08.2019 12:00:00 25,8 11,6 5 3 20 11 E 1017,0 20 60 0,0
14.08.2019 11:00:00 22,7 12,0 5 3 22 12 E 1017,7 20 60 0,0
14.08.2019 10:00:00 20,8 10,9 2 1 17 9 ESE 1018,4 20 60 0,0
14.08.2019 09:00:00 15,9 0,0 4 2 12 6 WNW 1019,7 9 60 0,0
14.08.2019 08:00:00 12,8 -0,5 4 2 14 8 WSW 1020,4 20 3 -
14.08.2019 07:00:00 13,7 -1,2 6 3 18 10 NNW 1019,7 20 0 0,0
14.08.2019 06:00:00 14,8 -0,5 6 3 19 10 E 1019,2 20 0 0,0

tt = temperature
td = dewpoint
ff = wind speed
fx = gusts
dd = wind direction
ppp = reduced air pressure
vv = visibility
sd = sunshine duration
rr = precipitation

Next stations